GW1213 Weather Reports


time (UTC)temp
F
wind
direction
speed
knots
gust
knots
rain 1hr
in
rain 24hr
in
rain mn
in
humidity
%
barometer
mb
20260504204547 78 193 2.6 11.3 0.00 0.00 0.00 31 1009.6
20260504204035 78 267 2.6 11.3 0.00 0.00 0.00 32 1009.6
20260504203535 78 159 3.5 10.4 0.00 0.00 0.00 31 1009.5
20260504203045 78 232 1.7 9.6 0.00 0.00 0.00 31 1009.7
20260504202535 78 182 2.6 8.7 0.00 0.00 0.00 32 1009.7
20260504202035 78 290 1.7 9.6 0.00 0.00 0.00 31 1010.0
20260504201551 78 175 2.6 9.6 0.00 0.00 0.00 31 1009.9
20260504201038 77 268 2.6 9.6 0.00 0.00 0.00 31 1009.9
20260504200537 77 176 2.6 9.6 0.00 0.00 0.00 31 1010.0
20260504200055 77 184 3.5 8.7 0.00 0.00 0.00 32 1010.0
20260504195535 76 239 2.6 7.8 0.00 0.00 0.00 33 1010.1
20260504195036 76 129 1.7 8.7 0.00 0.00 0.00 32 1010.1
20260504194549 77 289 3.5 9.6 0.00 0.00 0.00 32 1010.2
20260504194038 78 252 3.5 9.6 0.00 0.00 0.00 30 1010.1
20260504193536 79 255 1.7 9.6 0.00 0.00 0.00 30 1010.2
20260504193047 79 217 2.6 8.7 0.00 0.00 0.00 30 1010.2
20260504192534 79 153 3.5 7.8 0.00 0.00 0.00 30 1010.2
20260504192035 78 291 1.7 8.7 0.00 0.00 0.00 33 1010.3
20260504191557 78 205 1.7 9.6 0.00 0.00 0.00 30 1010.3
20260504191035 78 163 3.5 9.6 0.00 0.00 0.00 29 1010.5
20260504190534 78 88 1.7 7.8 0.00 0.00 0.00 30 1010.6
20260504185535 77 0 1.7 7.0 0.00 0.00 0.00 33 1010.6
20260504185034 77 238 1.7 8.7 0.00 0.00 0.00 30 1010.8
20260504184604 77 213 3.5 8.7 0.00 0.00 0.00 32 1010.7
20260504184037 77 70 3.5 7.8 0.00 0.00 0.00 31 1010.8
20260504183536 77 273 2.6 9.6 0.00 0.00 0.00 31 1010.9
20260504183051 77 269 2.6 9.6 0.00 0.00 0.00 30 1011.0
20260504182533 77 142 1.7 6.1 0.00 0.00 0.00 30 1011.0
20260504182035 77 132 0.9 10.4 0.00 0.00 0.00 30 1011.1
20260504181549 76 236 4.3 10.4 0.00 0.00 0.00 30 1011.3
20260504181033 77 157 1.7 7.8 0.00 0.00 0.00 30 1011.4
20260504180535 77 215 2.6 10.4 0.00 0.00 0.00 30 1011.3
20260504180049 77 259 2.6 10.4 0.00 0.00 0.00 30 1011.4
20260504175535 76 208 1.7 10.4 0.00 0.00 0.00 30 1011.5
20260504175035 76 244 2.6 10.4 0.00 0.00 0.00 30 1011.5
20260504174547 76 252 3.5 7.8 0.00 0.00 0.00 30 1011.6
20260504174034 76 240 1.7 7.8 0.00 0.00 0.00 30 1011.5
20260504173533 76 151 1.7 7.8 0.00 0.00 0.00 30 1011.6
20260504173052 76 110 2.6 7.0 0.00 0.00 0.00 30 1011.7
20260504172535 75 259 1.7 7.8 0.00 0.00 0.00 30 1011.8
20260504172033 75 106 1.7 7.8 0.00 0.00 0.00 31 1011.9
20260504171548 75 116 1.7 8.7 0.00 0.00 0.00 33 1012.0
20260504171036 75 166 0.9 8.7 0.00 0.00 0.00 31 1012.0
20260504170536 75 194 2.6 7.0 0.00 0.00 0.00 31 1012.2
20260504151035 71 250 1.7 7.8 0.00 0.00 0.00 36 1013.6
20260504150540 70 281 2.6 7.8 0.00 0.00 0.00 34 1013.6
20260504141038 67 74 0.0 4.3 0.00 0.00 0.00 47 1013.9
20260504140538 66 270 0.9 4.3 0.00 0.00 0.00 43 1014.0
20260504130539 59 183 0.9 5.2 0.00 0.00 0.00 50 1014.6
20260504110535 47 0 0.0 0.0 0.00 0.00 0.00 80 1015.1
20260504100535 48 0 0.0 0.0 0.00 0.00 0.00 74 1015.0
20260504081555 48 0 0.0 0.0 0.00 0.00 0.00 70 1015.3
20260504081034 49 0 0.0 0.0 0.00 0.00 0.00 72 1015.3
20260504080535 49 0 0.0 0.0 0.00 0.00 0.00 72 1015.3
20260504050538 46 0 0.0 0.0 0.00 0.00 0.00 83 1015.4
20260504045537 46 0 0.0 0.0 0.00 0.00 0.00 83 1015.3
20260504045038 46 0 0.0 0.0 0.00 0.00 0.00 83 1015.3
20260504044552 46 0 0.0 0.0 0.00 0.00 0.00 83 1015.2
20260504044038 46 0 0.0 0.0 0.00 0.00 0.00 83 1015.2
20260504043538 46 0 0.0 0.0 0.00 0.00 0.00 83 1015.2
20260504043047 46 0 0.0 0.0 0.00 0.00 0.00 83 1015.2
20260504042538 45 0 0.0 0.0 0.00 0.00 0.00 83 1015.1
20260504042040 45 0 0.0 0.0 0.00 0.00 0.00 84 1015.1
20260504041546 45 0 0.0 0.0 0.00 0.00 0.00 84 1015.2
20260504041038 45 0 0.0 0.0 0.00 0.00 0.00 85 1015.2
20260504040538 45 0 0.0 0.0 0.00 0.00 0.00 84 1015.2
20260504040104 45 0 0.0 0.0 0.00 0.00 0.00 84 1015.3
20260504035540 45 0 0.0 0.0 0.00 0.00 0.00 84 1015.2
20260504035040 45 0 0.0 0.0 0.00 0.00 0.00 85 1015.3
20260504034557 45 0 0.0 0.0 0.00 0.00 0.00 84 1015.3
20260504034037 45 0 0.0 0.0 0.00 0.00 0.00 84 1015.3
20260504033538 45 0 0.0 0.0 0.00 0.00 0.00 84 1015.2
20260504033119 45 0 0.0 0.0 0.00 0.00 0.00 84 1015.2
20260504032537 45 0 0.0 0.0 0.00 0.00 0.00 84 1015.2
20260504032038 45 0 0.0 0.0 0.00 0.00 0.00 83 1015.2
20260504031546 45 0 0.0 0.0 0.00 0.00 0.00 83 1015.3
20260504031038 45 0 0.0 0.0 0.00 0.00 0.00 82 1015.3
20260504030537 46 0 0.0 0.0 0.00 0.00 0.00 82 1015.2
20260504030056 46 0 0.0 0.0 0.00 0.00 0.00 81 1015.2
20260504025538 46 0 0.0 0.0 0.00 0.00 0.00 80 1015.2
20260504025038 46 0 0.0 0.0 0.00 0.00 0.00 80 1015.2
20260504024552 46 0 0.0 0.0 0.00 0.00 0.00 79 1015.1
20260504024037 47 0 0.0 0.0 0.00 0.00 0.00 79 1015.2
20260504023538 47 0 0.0 0.0 0.00 0.00 0.00 78 1015.2
20260504023100 47 0 0.0 0.0 0.00 0.00 0.00 78 1015.2
20260504022539 47 0 0.0 0.0 0.00 0.00 0.00 78 1015.2
20260504022037 48 0 0.0 0.0 0.00 0.00 0.00 78 1015.2
20260504021553 48 0 0.0 0.0 0.00 0.00 0.00 77 1015.2
20260504021037 48 0 0.0 0.0 0.00 0.00 0.00 76 1015.1
20260504020537 48 0 0.0 0.0 0.00 0.00 0.00 75 1015.1
20260504020056 49 0 0.0 0.0 0.00 0.00 0.00 74 1015.0
20260504015537 49 0 0.0 0.0 0.00 0.00 0.00 74 1015.0
20260504015039 49 0 0.0 0.0 0.00 0.00 0.00 74 1015.0
20260504014550 49 0 0.0 0.0 0.00 0.00 0.00 73 1015.0
20260504014037 50 0 0.0 0.0 0.00 0.00 0.00 71 1015.0
20260504013538 50 0 0.0 0.0 0.00 0.00 0.00 71 1014.9
20260504013100 50 0 0.0 0.0 0.00 0.00 0.00 69 1014.9
20260504012539 50 0 0.0 0.0 0.00 0.00 0.00 67 1014.7
20260504012038 51 0 0.0 0.0 0.00 0.00 0.00 66 1014.7
20260504011551 51 0 0.0 0.0 0.00 0.00 0.00 65 1014.6
20260504011037 51 0 0.0 0.0 0.00 0.00 0.00 65 1014.6
20260504010538 52 0 0.0 0.0 0.00 0.00 0.00 63 1014.6
20260504010054 52 0 0.0 0.0 0.00 0.00 0.00 61 1014.4
20260504005538 53 0 0.0 0.0 0.00 0.00 0.00 61 1014.4
20260504005038 53 0 0.0 0.0 0.00 0.00 0.00 60 1014.4
20260504004600 54 0 0.0 0.0 0.00 0.00 0.00 60 1014.3
20260504004038 54 0 0.0 0.0 0.00 0.00 0.00 58 1014.3
20260504003537 55 0 0.0 0.0 0.00 0.00 0.00 58 1014.2
20260504003051 55 0 0.0 0.0 0.00 0.00 0.00 57 1014.2
20260504002537 56 0 0.0 0.0 0.00 0.00 0.00 54 1014.1
20260504002038 56 0 0.0 0.0 0.00 0.00 0.00 54 1014.2
20260504001558 57 0 0.0 0.0 0.00 0.00 0.00 55 1014.1
20260504001037 58 0 0.0 0.0 0.00 0.00 0.00 53 1014.1
20260504000538 58 0 0.0 0.0 0.00 0.00 0.00 47 1014.1
20260504000055 59 0 0.0 0.0 0.00 0.00 0.00 51 1014.0
20260503235538 59 0 0.0 0.0 0.00 0.00 0.00 47 1013.9
20260503235036 60 0 0.0 0.0 0.00 0.00 0.00 44 1013.9
20260503234551 60 0 0.0 0.0 0.00 0.00 0.00 42 1013.8
20260503234036 61 0 0.0 0.0 0.00 0.00 0.00 36 1013.8
20260503233541 61 0 0.0 0.0 0.00 0.00 0.00 34 1013.7
20260503233054 62 0 0.0 0.0 0.00 0.00 0.00 34 1013.8
20260503232541 62 0 0.0 0.0 0.00 0.00 0.00 34 1013.7
20260503232036 62 0 0.0 0.0 0.00 0.00 0.00 33 1013.7
20260503231548 62 0 0.0 0.9 0.00 0.00 0.00 31 1013.6
20260503231038 62 0 0.0 0.9 0.00 0.00 0.00 30 1013.6
20260503230538 62 0 0.0 1.7 0.00 0.00 0.00 31 1013.6
20260503230059 62 0 0.0 1.7 0.00 0.00 0.00 30 1013.6
20260503225537 63 0 0.0 1.7 0.00 0.00 0.00 31 1013.7
20260503225038 63 260 0.0 3.5 0.00 0.00 0.00 30 1013.7
20260503224546 63 0 0.0 3.5 0.00 0.00 0.00 30 1013.8
20260503224038 63 0 0.0 2.6 0.00 0.00 0.00 30 1013.7
20260503223537 63 198 0.0 7.0 0.00 0.00 0.00 30 1013.9
20260503223049 63 276 2.6 7.0 0.00 0.00 0.00 28 1014.0
20260503222536 63 231 0.9 6.1 0.00 0.00 0.00 30 1014.0
20260503222038 63 0 0.0 1.7 0.00 0.00 0.00 30 1013.9
20260503221554 63 0 0.0 2.6 0.00 0.00 0.00 30 1013.9
20260503221038 63 270 0.0 2.6 0.00 0.00 0.00 29 1014.0
20260503220537 63 267 0.0 5.2 0.00 0.00 0.00 30 1014.0
20260503220051 63 0 1.7 5.2 0.00 0.00 0.00 30 1014.0
20260503215536 63 266 0.9 6.1 0.00 0.00 0.00 29 1014.0
20260503215037 63 0 0.0 6.1 0.00 0.00 0.00 31 1014.0
20260503214547 63 267 0.0 7.0 0.00 0.00 0.00 29 1014.0
20260503214040 63 258 1.7 7.0 0.00 0.00 0.00 29 1014.1
20260503213539 63 279 0.9 7.0 0.00 0.00 0.00 29 1014.1
20260503213100 64 138 1.7 6.1 0.00 0.00 0.00 29 1014.0
20260503212538 64 219 0.0 6.1 0.00 0.00 0.00 30 1014.2
20260503212038 64 259 1.7 6.1 0.00 0.00 0.00 29 1014.1
20260503211546 64 292 0.0 3.5 0.00 0.00 0.00 32 1014.1
20260503211037 65 0 0.0 1.7 0.00 0.00 0.00 30 1014.1
20260503210540 65 0 0.0 3.5 0.00 0.00 0.00 28 1014.1
20260503210055 65 281 0.9 3.5 0.00 0.00 0.00 28 1014.1
20260503205537 65 15 0.9 3.5 0.00 0.00 0.00 31 1014.1
20260503205038 65 15 0.9 5.2 0.00 0.00 0.00 31 1014.1